Temp
62 61 61 61 60 60 59 59 58 58 59 59 59 59 60 59 59 68 64 67 67 68 68 72 74 74 72 67 68 65 51 48 55 58 63 71 68 73 71 67 72 74 72 72 76
62 62 62 61 60 60 59 59 58 58 59 59 59 59 59 59 61 65 70 70 69 68 72 71 70 72 63 64 65 59 48 54 63 65 64 69 65 68 66 66 68 70 73 76 76
62 62 61 61 60 60 59 58 58 58 59 58 59 59 58 58 61 69 69 70 71 70 70 72 74 71 63 62 62 59 54 61 62 67 67 65 63 68 61 58 66 64 67 71 70
61 61 61 61 60 60 59 58 58 58 59 59 59 59 58 58 54 65 69 70 71 69 71 71 70 61 58 57 64 58 66 65 63 66 64 59 63 65 61 61 70 70 71 69 70
60 60 60 60 60 60 59 58 58 58 58 58 59 59 56 59 64 72 69 71 72 74 70 71 66 63 58 61 63 59 64 68 66 67 61 67 62 63 63 65 73 74 72 68 69
59 59 59 59 59 59 59 58 57 57 57 58 59 58 55 54 77 76 74 75 75 73 72 70 67 68 63 61 59 64 64 64 62 64 64 64 63 59 64 68 72 73 67 66 67
59 58 58 59 59 58 58 58 57 57 57 58 59 60 58 59 76 72 79 75 76 76 70 73 71 64 63 60 67 65 57 60 61 64 61 63 59 57 66 72 70 69 69 67 66
59 58 58 58 58 58 58 57 56 56 57 58 59 57 52 76 71 76 75 75 78 77 75 75 73 66 60 64 63 57 54 46 59 63 61 61 49 62 69 67 65 68 66 65 64
58 58 57 57 56 56 56 56 55 56 57 58 55 54 54 75 70 76 75 73 75 74 71 79 68 60 60 51 47 50 43 48 53 60 59 57 51 61 65 68 64 62 60 60 59
57 58 58 57 56 55 55 54 56 55 61 64 65 53 63 65 73 75 75 76 69 68 66 62 57 51 50 46 38 45 47 53 49 57 57 52 52 59 61 60 59 57 56 55 56
57 57 57 57 56 54 52 53 53 49 54 55 58 59 68 72 75 71 74 70 66 61 51 57 47 43 49 52 57 56 54 50 52 58 55 52 50 55 60 58 54 54 52 52 53
58 57 57 57 56 54 52 50 52 52 48 61 61 63 69 72 63 69 72 61 58 50 55 50 45 55 60 59 56 54 50 48 55 59 53 48 47 55 57 56 54 51 50 50 51
57 57 56 56 53 50 50 53 54 56 43 53 61 63 65 69 61 63 68 63 56 52 52 47 54 62 61 56 54 50 49 49 49 52 51 49 44 52 57 55 54 53 52 52 50
56 56 53 52 50 49 47 54 54 54 39 46 51 58 65 68 59 72 71 64 57 52 55 52 61 59 55 54 55 46 54 53 51 45 36 49 32 48 54 49 50 50 48 48 49
55 55 52 55 47 47 53 54 51 50 28 54 58 71 67 61 62 64 73 64 55 55 55 50 53 52 52 54 58 50 55 50 48 42 38 43 35 43 54 45 46 47 48 47 48
55 54 53 50 49 51 56 54 49 34 27 48 59 58 57 59 61 64 63 66 64 56 56 54 60 56 55 58 57 56 50 47 45 40 29 42 41 39 45 45 46 48 48 48 47
54 54 52 50 46 52 52 47 33 28 48 47 51 56 54 53 56 58 55 53 48 42 43 52 54 56 60 49 52 49 41 29 27 28 28 48 42 41 46 49 48 45 45 45 44
54 53 52 52 50 51 46 37 27 39 43 56 54 54 49 54 54 54 51 47 54 51 44 41 36 50 55 50 45 44 41 27 25 26 32 49 37 38 49 50 50 49 46 46 44
53 47 46 50 52 50 40 29 31 39 49 48 50 46 45 52 52 51 49 46 52 54 40 41 44 54 56 56 52 44 37 47 35 38 29 37 41 48 49 47 47 46 45 43 44
43 42 43 49 50 45 36 32 36 46 49 51 41 46 42 46 48 46 45 52 52 55 56 49 38 52 53 54 53 47 50 33 33 25 25 36 38 37 41 42 44 41 41 43 44
42 38 44 49 48 39 30 32 39 49 50 45 43 42 45 45 49 46 44 52 55 55 56 52 41 42 47 41 42 42 36 41 40 35 26 24 33 45 41 42 40 41 43 40 39
41 32 46 48 34 34 31 38 45 46 50 47 47 43 43 45 43 46 45 49 56 53 50 49 39 35 41 49 53 49 43 42 26 31 33 27 29 45 43 43 42 42 44 41 42
35 37 46 46 29 30 35 39 43 43 45 45 44 46 46 43 37 45 47 54 56 51 47 47 34 30 36 40 45 41 47 47 43 38 30 25 29 46 45 42 43 40 41 42 43
35 30 36 40 38 35 32 34 36 46 45 49 46 47 42 40 43 39 45 51 52 50 49 48 39 33 32 36 40 35 42 47 42 29 32 34 34 39 40 39 41 40 41 41 41
35 31 36 29 32 33 37 38 35 36 45 47 43 43 41 36 39 38 42 46 49 48 46 42 32 38 41 42 44 43 42 43 36 38 31 38 39 38 38 38 38 41 42 42 42
32 32 37 35 38 34 36 34 36 39 42 40 40 44 44 39 40 39 42 40 40 43 40 43 32 38 35 41 41 41 43 41 42 42 43 42 40 42 42 42 39 40 41 41 41
38 42 36 36 34 33 32 36 38 42 44 47 45 42 41 44 48 48 46 46 44 38 36 35 34 33 27 37 38 31 36 39 34 42 42 32 36 40 39 39 36 38 40 40 41
MSLP
1020.71 1020.76 1020.78 1020.69 1020.67 1020.60 1020.40 1020.26 1020.08 1019.96 1019.70 1019.28 1018.80 1018.27 1017.75 1017.30 1016.19 1015.14 1014.84 1013.76 1013.58 1013.51 1013.28 1013.13 1012.61 1012.11 1011.90 1011.95 1011.48 1011.52 1012.41 1012.58 1011.98 1011.38 1011.40 1010.60 1010.33 1009.95 1009.66 1009.68 1009.85 1010.59 1011.18 1011.74 1011.37
1020.60 1020.71 1020.74 1020.67 1020.51 1020.65 1020.21 1020.14 1019.98 1019.84 1019.67 1019.44 1018.91 1018.37 1017.77 1017.41 1016.61 1015.04 1013.64 1013.50 1013.63 1013.53 1013.36 1013.38 1012.88 1012.21 1012.41 1011.95 1011.96 1011.84 1012.34 1012.04 1011.43 1011.35 1011.41 1011.19 1011.06 1010.67 1010.47 1010.31 1011.10 1011.36 1011.61 1011.54 1011.59
1020.32 1020.49 1020.47 1020.52 1020.47 1020.48 1020.30 1020.07 1020.01 1019.56 1019.48 1019.29 1019.01 1018.42 1017.73 1017.47 1016.50 1014.02 1013.53 1013.39 1013.32 1013.23 1013.49 1013.42 1012.91 1012.58 1012.69 1012.17 1011.68 1011.55 1011.80 1011.36 1011.65 1011.26 1011.44 1011.61 1011.62 1011.30 1011.26 1011.22 1011.57 1012.19 1012.23 1012.20 1012.39
1020.12 1020.14 1020.34 1020.36 1020.23 1020.23 1020.31 1020.02 1019.98 1019.67 1019.41 1019.05 1019.04 1018.48 1017.49 1017.38 1015.94 1013.58 1013.49 1013.47 1013.27 1013.21 1013.33 1013.08 1012.85 1012.83 1012.95 1012.72 1011.53 1011.48 1011.02 1010.99 1011.17 1011.13 1011.28 1011.77 1011.97 1011.85 1011.61 1011.98 1011.75 1011.94 1012.08 1012.39 1012.80
1019.74 1019.71 1020.03 1020.20 1020.03 1020.11 1020.04 1019.99 1019.87 1019.73 1019.67 1019.24 1018.92 1018.68 1017.67 1017.02 1014.53 1013.33 1013.54 1013.48 1013.28 1013.10 1013.07 1012.85 1012.75 1012.59 1012.79 1012.45 1011.89 1011.23 1010.95 1010.81 1010.66 1010.87 1011.01 1011.33 1011.68 1011.82 1011.70 1011.75 1011.66 1011.77 1012.24 1012.83 1013.17
1019.42 1019.41 1019.59 1019.77 1019.92 1019.93 1019.82 1019.93 1019.82 1019.82 1019.69 1019.22 1019.00 1018.73 1018.11 1016.57 1012.91 1012.67 1013.04 1013.37 1013.12 1012.88 1012.70 1012.51 1012.48 1012.41 1012.48 1012.40 1012.42 1011.72 1011.46 1011.26 1011.12 1011.21 1011.11 1011.45 1011.61 1011.83 1011.76 1011.63 1011.68 1011.97 1012.68 1013.19 1013.72
1018.91 1019.23 1019.35 1019.35 1019.47 1019.73 1019.55 1019.73 1019.73 1019.64 1019.47 1019.16 1019.20 1018.78 1017.76 1014.61 1012.76 1012.98 1012.27 1012.65 1012.84 1012.72 1012.52 1012.42 1012.19 1012.50 1012.76 1012.70 1012.22 1012.03 1012.05 1011.87 1011.39 1011.33 1011.46 1011.56 1011.98 1011.54 1011.70 1011.60 1011.87 1012.36 1012.81 1013.66 1014.65
1018.82 1018.89 1019.07 1019.21 1019.18 1019.32 1019.53 1019.62 1019.60 1019.44 1019.35 1018.75 1019.20 1018.89 1016.37 1013.09 1012.55 1012.56 1012.32 1012.32 1012.39 1012.55 1012.62 1012.55 1012.50 1012.82 1012.79 1012.80 1012.78 1012.82 1012.76 1012.50 1011.19 1011.11 1011.98 1011.87 1012.39 1011.69 1011.50 1011.70 1012.14 1012.56 1013.39 1014.40 1015.54
1018.80 1018.78 1018.59 1018.91 1018.99 1019.10 1019.38 1019.49 1019.41 1019.11 1018.90 1018.73 1018.66 1018.51 1015.12 1012.33 1012.40 1011.88 1011.72 1012.08 1012.24 1012.47 1012.71 1012.77 1012.94 1013.29 1012.87 1013.37 1013.70 1013.18 1012.94 1012.25 1011.62 1010.79 1011.51 1012.19 1012.56 1012.08 1011.75 1011.93 1012.54 1013.26 1014.29 1015.28 1015.94
1018.72 1018.68 1018.54 1018.00 1018.72 1019.04 1019.30 1019.34 1019.13 1019.00 1017.73 1018.26 1017.70 1017.64 1014.38 1012.08 1011.59 1011.62 1011.60 1011.74 1012.36 1012.56 1013.13 1013.25 1013.62 1013.40 1013.28 1013.80 1013.79 1013.17 1012.91 1012.01 1011.48 1011.35 1011.67 1012.39 1012.50 1012.11 1012.00 1012.42 1013.22 1014.12 1015.25 1016.06 1016.69
1018.39 1018.29 1018.31 1018.24 1017.84 1019.01 1019.68 1018.96 1019.15 1019.31 1018.07 1015.92 1015.49 1014.41 1012.25 1011.46 1011.11 1011.57 1011.52 1011.79 1012.15 1012.80 1013.45 1013.44 1013.91 1013.48 1013.19 1013.12 1012.81 1012.73 1012.44 1012.05 1011.59 1011.29 1011.70 1012.30 1012.75 1012.66 1012.37 1013.23 1014.02 1015.10 1015.98 1016.74 1017.45
1018.19 1017.83 1017.87 1018.29 1018.11 1018.52 1019.59 1019.20 1019.67 1018.98 1017.59 1015.42 1014.46 1013.70 1012.90 1011.90 1011.97 1011.32 1011.68 1012.26 1012.42 1012.83 1013.29 1013.74 1013.39 1012.85 1012.60 1012.49 1012.33 1012.46 1012.41 1012.28 1011.80 1012.15 1012.43 1012.63 1012.79 1012.31 1012.73 1013.64 1014.49 1015.57 1016.52 1017.20 1017.69
1018.09 1017.88 1017.64 1017.81 1018.54 1019.09 1019.10 1019.67 1019.18 1019.34 1018.35 1015.29 1013.58 1011.79 1011.45 1011.55 1011.01 1011.05 1011.35 1011.93 1012.18 1012.66 1012.81 1012.90 1012.12 1011.85 1011.68 1011.93 1012.14 1012.40 1012.61 1012.77 1012.82 1012.55 1012.66 1012.87 1013.05 1012.64 1012.80 1014.09 1014.93 1016.05 1016.84 1017.51 1018.33
1018.11 1017.66 1017.91 1018.11 1019.15 1019.12 1019.03 1018.98 1019.40 1019.01 1018.06 1014.30 1012.58 1009.47 1009.31 1009.81 1009.36 1010.26 1010.34 1011.32 1011.97 1012.00 1012.04 1011.78 1011.40 1011.38 1011.33 1011.65 1011.98 1012.47 1012.79 1013.06 1013.49 1013.78 1014.08 1013.93 1014.31 1013.18 1013.23 1014.69 1015.51 1016.48 1017.23 1018.16 1018.74
1017.95 1017.85 1017.78 1017.74 1018.35 1018.71 1018.28 1018.60 1019.08 1019.34 1017.61 1011.53 1009.46 1007.81 1007.60 1008.77 1008.19 1008.52 1009.17 1010.38 1010.66 1011.22 1011.40 1010.76 1010.46 1010.65 1010.95 1011.49 1012.03 1012.72 1012.94 1013.95 1014.60 1014.92 1015.05 1015.16 1014.96 1013.38 1013.91 1015.24 1016.11 1017.07 1017.85 1018.74 1019.14
1017.43 1017.76 1017.82 1018.40 1018.41 1018.48 1018.17 1018.67 1019.19 1018.98 1015.14 1010.93 1008.64 1007.68 1008.06 1008.20 1008.05 1008.50 1009.37 1010.21 1010.68 1011.23 1010.72 1010.45 1010.30 1010.48 1010.64 1011.34 1012.18 1013.10 1013.94 1014.94 1015.14 1015.80 1015.33 1014.56 1014.85 1013.50 1013.75 1014.72 1016.18 1017.27 1018.29 1019.14 1019.71
1017.28 1017.43 1017.82 1017.92 1018.11 1018.35 1018.61 1019.09 1018.77 1016.41 1013.18 1010.12 1008.59 1008.39 1008.23 1008.06 1008.26 1008.72 1009.38 1009.92 1010.22 1011.31 1010.67 1010.49 1009.93 1010.37 1010.68 1011.80 1012.52 1013.45 1015.11 1016.19 1016.32 1016.22 1014.77 1013.17 1013.91 1013.91 1014.53 1015.14 1015.98 1017.47 1018.67 1019.40 1019.53
1016.85 1017.18 1017.28 1017.52 1017.75 1018.26 1018.86 1018.51 1016.05 1014.00 1012.24 1009.96 1008.51 1008.41 1008.33 1008.60 1008.33 1008.85 1009.51 1009.51 1010.12 1010.42 1010.94 1010.65 1009.66 1009.93 1010.39 1011.36 1012.56 1013.62 1014.91 1016.21 1015.76 1015.57 1014.64 1013.30 1013.53 1014.60 1015.22 1015.78 1016.59 1017.71 1018.74 1018.99 1019.07
1016.70 1016.97 1017.24 1017.13 1017.36 1018.17 1018.33 1016.92 1014.99 1013.47 1011.49 1010.68 1009.52 1009.19 1008.85 1008.63 1008.67 1008.77 1009.49 1009.16 1009.54 1009.96 1010.83 1010.11 1009.66 1009.09 1009.67 1010.95 1012.47 1013.20 1014.34 1014.91 1015.47 1015.50 1015.35 1014.34 1014.76 1015.33 1015.67 1016.49 1017.06 1017.75 1018.41 1019.11 1019.65
1016.50 1016.89 1016.21 1016.25 1017.07 1017.81 1017.46 1015.72 1014.46 1012.88 1011.48 1010.76 1009.84 1009.41 1008.68 1009.03 1008.60 1008.94 1009.24 1008.38 1008.90 1009.46 1010.13 1010.27 1010.19 1009.88 1010.59 1011.21 1012.23 1012.91 1013.83 1014.71 1015.79 1016.27 1015.59 1014.06 1013.91 1014.29 1015.93 1016.91 1017.89 1018.78 1019.14 1019.38 1020.25
1016.21 1016.29 1014.49 1015.47 1016.86 1016.75 1016.00 1014.92 1013.82 1012.40 1011.96 1011.51 1010.57 1009.74 1009.19 1008.97 1008.47 1008.46 1008.27 1008.20 1007.96 1008.96 1009.76 1010.72 1011.23 1011.41 1011.60 1011.97 1012.26 1013.24 1013.75 1014.21 1015.01 1015.69 1015.52 1015.20 1015.00 1014.96 1016.12 1016.98 1017.98 1018.87 1019.68 1020.02 1020.20
1015.54 1015.07 1014.41 1015.12 1015.86 1015.09 1014.78 1013.77 1013.12 1011.78 1011.82 1011.47 1010.84 1010.26 1009.93 1009.57 1008.94 1008.55 1008.02 1007.90 1007.72 1008.80 1009.40 1010.18 1011.82 1012.24 1011.94 1012.14 1012.10 1012.79 1013.47 1014.05 1014.63 1015.36 1015.43 1015.53 1016.42 1016.65 1016.79 1017.54 1018.42 1019.21 1019.59 1019.75 1019.97
1015.19 1014.07 1014.09 1014.09 1014.07 1013.99 1014.09 1013.11 1012.26 1011.43 1010.88 1010.64 1010.43 1010.02 1010.00 1009.97 1010.19 1009.09 1008.34 1008.05 1008.03 1009.05 1009.95 1010.37 1011.91 1012.73 1012.91 1013.12 1012.85 1012.88 1013.12 1013.54 1014.14 1014.96 1015.67 1015.71 1016.51 1016.89 1017.59 1018.17 1018.75 1019.05 1019.45 1019.52 1019.72
1014.59 1013.86 1012.97 1012.79 1013.02 1013.00 1012.84 1012.07 1011.39 1010.60 1010.53 1010.20 1010.26 1009.96 1009.95 1010.16 1010.05 1009.59 1009.04 1009.33 1009.17 1009.59 1010.48 1010.90 1011.95 1012.15 1012.30 1012.64 1013.02 1013.20 1012.85 1013.06 1013.86 1014.85 1015.15 1015.18 1016.38 1017.27 1017.95 1018.45 1018.86 1019.37 1019.72 1019.82 1019.69
1012.95 1012.21 1011.33 1011.11 1011.45 1011.69 1011.21 1010.73 1010.49 1010.32 1010.11 1009.81 1009.94 1009.72 1010.00 1010.50 1009.92 1009.80 1009.68 1010.06 1010.67 1011.11 1011.19 1012.46 1013.28 1013.30 1012.95 1013.22 1013.70 1012.69 1012.55 1012.63 1013.18 1013.78 1014.35 1014.72 1015.83 1017.08 1017.87 1018.42 1018.92 1019.39 1019.80 1019.49 1019.33
1011.01 1010.90 1010.74 1010.30 1009.68 1010.49 1010.50 1010.41 1009.76 1009.44 1009.40 1009.29 1009.23 1009.05 1009.47 1009.62 1009.54 1009.33 1009.67 1010.25 1010.29 1011.48 1012.02 1013.11 1014.03 1014.45 1014.56 1014.14 1014.00 1012.86 1012.29 1012.36 1012.68 1013.26 1013.66 1014.57 1015.58 1016.71 1017.59 1018.27 1018.96 1018.91 1018.86 1019.09 1019.48
1010.22 1009.86 1010.37 1009.46 1009.31 1009.59 1009.50 1009.11 1008.41 1008.72 1008.21 1007.94 1008.17 1008.81 1008.78 1007.92 1009.09 1009.28 1009.47 1009.73 1010.31 1011.27 1012.57 1013.59 1014.30 1014.30 1014.32 1014.70 1014.67 1012.80 1011.68 1011.81 1012.23 1012.68 1013.30 1014.48 1015.47 1016.46 1017.53 1018.20 1018.78 1019.03 1019.29 1019.58 1019.87
Wind_Speed
5 6 5 6 7 7 10 11 12 16 17 19 19 19 20 20 21 2 4 3 3 4 5 8 7 10 6 5 4 1 4 4 7 4 3 8 8 7 2 3 5 8 8 4 7
7 7 7 6 6 8 8 10 11 14 17 18 19 20 19 19 5 8 5 5 1 6 6 7 11 9 3 5 4 5 3 7 1 4 6 7 8 6 6 8 7 7 9 11 8
8 8 7 7 7 7 8 9 10 13 15 17 19 21 20 16 5 2 5 6 4 3 2 7 10 7 6 6 7 5 7 4 1 7 7 5 6 7 4 4 5 7 5 5 6
9 8 8 9 7 7 8 9 10 13 14 16 19 21 25 2 3 3 7 6 3 1 2 6 7 4 4 6 9 5 7 2 1 5 4 2 2 6 2 4 8 8 5 6 9
11 10 10 10 9 8 8 9 10 11 14 16 16 19 9 4 9 5 6 7 3 3 5 6 6 5 5 7 9 2 4 6 3 6 2 2 2 4 7 5 8 7 7 7 6
11 11 11 10 10 9 8 9 9 10 12 14 15 18 1 6 3 11 9 6 8 5 7 5 4 4 4 5 4 5 7 7 4 4 4 2 3 1 5 7 7 5 7 6 9
12 12 12 11 11 11 9 9 10 9 11 13 14 5 6 15 7 5 9 4 6 5 4 6 3 4 7 8 6 7 6 9 9 7 3 6 8 8 7 8 6 8 6 8 17
9 12 11 12 11 10 10 8 9 11 14 11 10 4 9 8 4 11 8 6 6 5 4 8 5 4 2 5 6 4 4 4 9 9 4 10 5 3 9 8 6 7 9 11 18
7 8 11 11 11 10 9 8 10 13 15 11 3 4 10 4 5 8 5 5 6 4 3 6 3 4 5 2 4 4 6 8 4 7 8 6 7 6 6 7 8 9 9 15 14
8 9 9 12 11 10 7 5 10 10 9 8 6 5 9 6 7 9 7 6 3 4 4 3 3 2 0 3 6 5 9 8 7 8 7 7 7 8 7 1 10 10 14 14 12
8 8 10 10 11 8 2 2 3 2 6 11 10 8 12 6 3 4 6 4 3 3 7 5 3 7 9 11 13 11 5 5 2 4 6 6 5 10 10 6 10 13 13 13 8
9 4 7 9 8 13 3 3 2 3 7 12 20 20 21 13 10 7 5 6 7 9 5 6 9 11 12 7 1 4 4 6 8 5 3 3 5 12 5 6 13 15 12 10 8
9 8 5 1 14 6 3 0 3 6 4 7 13 15 13 18 19 11 11 9 6 9 10 12 10 16 11 5 3 4 4 6 5 6 2 4 6 9 5 18 17 13 9 10 9
8 8 12 16 4 4 3 6 4 2 4 7 9 12 14 15 16 20 13 12 9 12 11 11 15 12 4 4 6 4 4 6 4 4 3 7 6 5 12 13 14 10 11 9 8
8 5 18 11 7 3 4 10 7 0 6 6 6 7 6 19 7 16 16 12 16 13 7 8 3 5 8 6 6 3 7 3 4 4 4 6 4 9 11 9 11 9 11 8 6
8 7 15 2 2 3 7 7 2 3 12 6 6 6 8 17 14 3 12 8 11 10 14 10 6 7 7 3 2 8 5 3 4 2 5 15 10 6 5 15 10 11 10 7 5
9 6 9 6 3 4 4 4 4 9 4 14 8 6 8 11 21 13 8 19 12 13 16 11 15 4 6 5 5 6 6 3 2 2 8 6 9 2 10 13 15 13 8 5 4
10 8 7 4 6 9 2 4 11 10 20 3 4 5 12 11 14 17 11 15 18 8 4 10 5 11 5 7 7 7 9 7 7 4 4 6 4 5 14 15 14 12 7 4 6
12 3 4 6 11 7 6 10 10 10 12 18 23 11 10 15 8 14 18 12 14 15 10 9 11 5 11 7 9 6 6 6 1 3 1 4 6 8 13 13 11 11 11 8 7
3 3 6 10 12 9 8 13 8 9 11 13 24 9 13 15 13 12 10 11 15 15 13 5 1 4 7 7 5 4 1 4 1 4 6 6 8 6 12 11 10 7 6 6 5
3 4 4 16 9 6 12 10 16 18 10 8 11 12 8 9 16 12 9 5 14 12 14 9 5 1 7 5 7 3 2 4 4 4 4 0 2 7 13 10 9 8 5 2 2
4 8 6 13 9 4 11 21 16 16 18 15 6 5 13 7 5 14 11 8 5 5 16 8 5 5 10 8 9 5 7 6 6 3 4 5 1 6 11 10 8 5 1 2 3
3 5 8 10 12 8 8 19 18 13 19 14 14 11 8 10 5 3 1 3 9 6 3 7 4 4 3 2 1 4 9 11 6 3 4 4 4 7 8 8 6 6 6 5 4
4 5 5 9 5 18 16 16 21 18 21 17 11 11 6 6 7 4 6 3 6 5 13 7 2 6 12 2 6 5 9 11 12 5 5 5 9 8 6 6 6 4 5 4 6
8 7 6 7 17 12 17 15 23 17 18 13 10 15 10 7 11 9 7 5 5 4 6 6 4 4 4 9 13 7 8 16 10 10 9 8 7 10 8 6 6 3 1 6 10
7 8 5 4 19 23 21 18 17 21 11 23 19 20 15 19 14 16 7 6 6 4 6 4 8 2 13 14 14 12 10 12 14 9 11 8 3 8 8 7 6 4 9 10 10
9 8 8 9 7 18 20 27 29 22 22 21 20 14 17 21 15 10 9 9 7 9 5 8 6 4 7 14 18 16 8 7 5 4 8 9 5 8 5 6 5 5 7 7 8
Wind_Direction
272 287 294 315 324 330 336 342 346 342 339 338 337 334 336 335 320 265 273 201 172 343 340 293 301 283 260 263 267 265 44 282 285 39 56 21 32 344 121 79 353 60 79 109 31
263 278 289 298 310 313 328 334 341 341 340 337 337 332 335 338 304 249 186 128 57 18 8 328 322 340 305 276 275 118 137 241 35 71 30 3 37 32 41 5 53 53 35 35 20
245 256 267 275 289 302 316 326 330 341 338 338 337 333 330 329 301 285 208 164 173 74 251 289 287 317 308 306 269 236 220 252 109 81 61 7 24 345 17 21 61 101 70 31 38
244 247 254 262 270 286 300 316 321 333 335 342 337 331 324 235 328 158 188 205 197 56 303 274 289 303 290 273 281 231 251 342 107 82 75 60 346 321 337 90 108 86 72 47 41
236 237 246 254 264 275 289 306 313 324 333 338 337 329 356 309 259 176 208 234 259 237 235 288 332 311 287 313 343 263 326 310 74 103 132 1 302 275 306 119 107 103 59 59 42
239 236 238 244 257 269 274 291 304 319 324 330 332 325 217 276 184 157 200 205 252 232 280 286 259 320 283 290 307 328 356 317 301 237 182 184 287 23 325 146 114 106 88 64 82
238 241 239 236 238 249 263 277 300 313 311 317 327 312 265 238 273 215 190 214 263 286 297 311 352 55 354 317 331 337 348 316 290 253 171 90 324 228 183 147 155 107 98 89 76
285 244 241 234 233 240 261 280 307 311 302 299 322 299 252 268 266 283 216 221 230 311 293 295 6 328 211 294 345 300 297 274 259 209 195 100 270 109 174 161 136 112 96 79 70
327 312 246 241 236 228 240 279 289 291 293 289 280 217 265 248 231 243 199 226 216 197 314 291 14 233 339 183 330 250 249 228 243 105 130 123 250 245 245 181 130 102 87 68 57
312 309 288 230 235 226 222 259 279 314 260 237 248 330 258 239 223 221 241 209 265 156 258 194 261 248 283 125 221 220 225 266 188 193 144 185 233 290 297 153 134 104 79 64 46
301 314 323 261 211 186 154 348 262 287 247 192 191 224 291 221 281 190 186 171 245 197 207 219 173 226 219 216 237 260 276 298 276 166 126 195 231 266 283 135 104 83 72 60 43
312 294 321 299 197 145 84 141 323 149 302 250 258 258 272 285 289 197 169 172 190 219 230 276 233 236 244 249 246 291 295 301 304 115 108 237 263 263 250 136 101 91 75 65 36
325 309 334 23 122 112 148 194 96 293 270 267 237 242 225 222 247 214 189 195 204 210 228 215 239 209 265 172 209 261 254 273 254 338 357 281 301 273 152 107 90 82 90 72 57
308 318 118 124 127 140 168 161 187 135 349 269 230 247 211 217 242 230 200 183 209 228 223 237 241 225 195 226 185 226 70 23 21 44 239 85 285 300 155 103 90 86 74 67 49
293 149 151 159 122 170 209 152 157 147 260 254 214 195 185 186 129 203 194 195 204 216 195 233 249 183 183 200 226 224 83 27 327 308 328 293 278 232 169 120 117 100 83 65 37
266 188 176 133 64 275 130 138 149 139 225 255 219 218 200 198 216 94 191 199 201 240 253 233 263 161 171 202 150 111 65 300 252 196 270 224 204 256 249 140 115 101 87 69 32
250 236 173 146 191 171 144 123 188 202 218 244 232 206 222 196 212 208 202 200 188 209 230 244 235 176 148 120 77 80 84 315 342 199 229 239 191 293 108 103 106 103 90 68 21
236 240 216 184 145 144 153 198 214 211 220 254 191 239 208 215 227 203 224 211 207 198 176 213 215 165 153 170 165 177 157 177 223 190 283 235 210 175 116 102 98 102 120 81 25
236 239 216 204 162 160 177 228 214 225 225 235 270 265 253 226 222 184 219 226 213 200 194 196 231 138 159 143 151 222 192 221 321 270 107 222 76 102 116 94 77 65 47 29 8
181 209 231 159 169 165 218 218 215 232 294 272 227 230 220 228 219 188 193 223 220 206 205 283 129 138 130 122 233 141 238 88 334 212 231 228 174 171 123 104 89 84 66 21 351
198 226 248 152 148 207 210 217 222 238 256 267 259 251 253 228 218 200 206 213 204 212 210 215 103 264 97 181 156 156 265 218 176 184 200 223 89 110 116 112 100 69 58 300 8
268 215 166 150 199 184 203 205 222 226 229 245 285 290 240 270 274 236 224 176 88 218 206 175 143 201 202 175 207 204 199 190 133 261 239 146 149 98 103 101 106 110 29 2 18
214 221 174 174 214 193 209 213 233 222 233 218 219 194 245 253 246 207 279 161 113 64 180 172 187 142 120 326 257 201 221 216 202 124 230 139 169 132 101 102 96 70 351 353 348
175 228 220 200 176 209 199 220 216 225 237 232 254 245 256 248 219 251 244 56 22 106 58 60 141 168 219 134 166 220 220 235 205 200 179 205 125 133 119 110 101 87 303 352 358
187 221 244 203 195 200 210 203 212 223 218 231 253 236 232 236 250 219 213 191 122 76 75 97 21 13 308 334 288 210 231 227 226 203 188 213 144 135 149 136 125 108 299 15 9
213 199 200 276 200 201 208 218 217 225 218 219 228 235 226 239 220 241 186 213 176 120 104 180 208 220 276 268 283 277 223 222 239 225 214 178 174 137 137 127 114 54 27 16 3
211 243 238 231 222 202 212 217 215 222 218 224 220 230 237 233 239 248 220 197 169 145 139 151 151 144 235 228 266 264 220 229 214 235 198 212 150 122 100 97 94 60 39 6 6